Boonville, MO

1:06 AM CST on January 21, 2017 (GMT -0600)
Boonville

Weather History for KVER - March, 2013

Change the Weather History Date:

Sunday, March 3, 2013

  Actual Average Record
Temperature  
Mean Temperature 27 °F -  
Max Temperature 39 °F 52 °F 78 °F (1976)
Min Temperature 15 °F 30 °F -1 °F (2014)
Degree Days  
Heating Degree Days 38    
Moisture  
Dew Point 17 °F    
Average Humidity 64    
Maximum Humidity 90    
Minimum Humidity 41    
Precipitation  
Precipitation 0.00 in - - ()
Sea Level Pressure  
Sea Level Pressure 30.05 in    
Wind  
Wind Speed 5 mph (SE)    
Max Wind Speed 14 mph    
Max Gust Speed 18 mph    
Visibility 10 miles    
Events      
Averages and records for this station are not official NWS values.
T = Trace of Precipitation, MM = Missing Value Source: NWS Daily Summary

Daily Weather History Graph

Daily Weather History Graph

Search for Another Location

Airport or City:

Trip Planner

Search our weather history database for the weather conditions in past years. The results will help you decide how hot, cold, wet, or windy it might be!

Date:

Astronomy

Mar. 03, 2013 Rise Set
Actual Time 6:39 AM CST 6:05 PM CST
Civil Twilight 6:13 AM CST 6:32 PM CST
Nautical Twilight 5:42 AM CST 7:03 PM CST
Astronomical Twilight 5:11 AM CST 7:34 PM CST
Moon No Moon Rise 9:58 AM CST (3/3)
Length of Visible Light 12h 19m
Length of Day
11h 25m
Waning Gibbous, 63% of the Moon is Illuminated
Mar 3
Waning Gibbous
Mar 4
Last Quarter
Mar 11
New
Mar 19
First Quarter
Mar 27
Full

Hourly Weather History & Observations

Time (CST) Temp. Windchill Dew Point Humidity Pressure Visibility Wind Dir Wind Speed Gust Speed Precip Events Conditions
12:15 AM 17.1 °F - 14.5 °F 90% 30.22 in 7.0 mi Calm Calm - N/A   Mostly Cloudy
12:35 AM 16.9 °F - 13.8 °F 88% 30.22 in 7.0 mi Calm Calm - N/A   Overcast
12:55 AM 17.2 °F - 14.2 °F 88% 30.22 in 7.0 mi Calm Calm - N/A   Overcast
1:15 AM 18.1 °F - 14.4 °F 85% 30.21 in 10.0 mi Calm Calm - N/A   Overcast
1:35 AM 18.3 °F - 14.5 °F 85% 30.21 in 7.0 mi Calm Calm - N/A   Overcast
1:55 AM 18.5 °F - 15.1 °F 86% 30.21 in 7.0 mi Calm Calm - N/A   Overcast
2:15 AM 18.7 °F - 15.1 °F 86% 30.20 in 7.0 mi Calm Calm - N/A   Overcast
2:35 AM 18.9 °F - 14.7 °F 84% 30.18 in 10.0 mi Calm Calm - N/A   Overcast
2:55 AM 18.9 °F 12.1 °F 14.9 °F 85% 30.16 in 10.0 mi SSE 4.6 mph - N/A   Overcast
3:15 AM 18.5 °F 13.3 °F 14.5 °F 85% 30.16 in 10.0 mi SSE 3.5 mph - N/A   Mostly Cloudy
3:35 AM 18.3 °F - 14.2 °F 84% 30.16 in 10.0 mi Calm Calm - N/A   Scattered Clouds
3:55 AM 18.1 °F - 14.4 °F 85% 30.16 in 10.0 mi Calm Calm - N/A   Clear
4:35 AM 16.9 °F 9.8 °F 13.6 °F 87% 30.16 in 10.0 mi SE 4.6 mph - N/A   Clear
4:55 AM 16.9 °F 11.5 °F 13.6 °F 87% 30.16 in 10.0 mi SSE 3.5 mph - N/A   Clear
5:15 AM 16.9 °F 9.8 °F 14.0 °F 88% 30.15 in 10.0 mi SE 4.6 mph - N/A   Clear
5:35 AM 16.0 °F 8.8 °F 12.6 °F 86% 30.15 in 10.0 mi SSE 4.6 mph - N/A   Clear
5:55 AM 15.8 °F 8.6 °F 12.7 °F 88% 30.15 in 10.0 mi SE 4.6 mph - N/A   Clear
6:15 AM 16.2 °F 10.6 °F 12.6 °F 86% 30.15 in 10.0 mi SSE 3.5 mph - N/A   Clear
6:35 AM 15.8 °F 8.6 °F 12.4 °F 86% 30.15 in 10.0 mi SE 4.6 mph - N/A   Clear
6:55 AM 15.8 °F 5.1 °F 12.6 °F 87% 30.14 in 10.0 mi SE 8.1 mph - N/A   Clear
7:15 AM 17.8 °F 8.5 °F 13.6 °F 84% 30.14 in 10.0 mi SE 6.9 mph - N/A   Scattered Clouds
7:35 AM 19.0 °F 10.0 °F 14.0 °F 81% 30.14 in 10.0 mi SE 6.9 mph - N/A   Mostly Cloudy
7:55 AM 19.8 °F 9.9 °F 14.2 °F 79% 30.14 in 10.0 mi SE 8.1 mph - N/A   Scattered Clouds
8:15 AM 22.5 °F 14.1 °F 15.4 °F 74% 30.14 in 10.0 mi SE 6.9 mph - N/A   Scattered Clouds
8:35 AM 24.6 °F 15.8 °F 16.0 °F 70% 30.14 in 10.0 mi SSE 8.1 mph - N/A   Mostly Cloudy
8:55 AM 26.1 °F 18.4 °F 16.5 °F 67% 30.14 in 10.0 mi SE 6.9 mph - N/A   Scattered Clouds
9:15 AM 27.7 °F 20.4 °F 17.2 °F 65% 30.14 in 10.0 mi SSE 6.9 mph - N/A   Mostly Cloudy
9:35 AM 28.6 °F 19.3 °F 17.2 °F 63% 30.13 in 10.0 mi SE 10.4 mph - N/A   Scattered Clouds
9:55 AM 30.0 °F 21.1 °F 17.2 °F 59% 30.13 in 10.0 mi SSE 10.4 mph - N/A   Clear
10:15 AM 30.7 °F 23.3 °F 17.4 °F 58% 30.13 in 10.0 mi SE 8.1 mph - N/A   Clear
10:35 AM 31.8 °F 23.3 °F 17.4 °F 55% 30.11 in 10.0 mi SSE 10.4 mph - N/A   Mostly Cloudy
10:55 AM 32.4 °F 24.0 °F 17.2 °F 54% 30.10 in 10.0 mi SE 10.4 mph - N/A   Overcast
11:15 AM 33.1 °F 24.9 °F 16.5 °F 51% 30.09 in 10.0 mi SSE 10.4 mph - N/A   Overcast
11:35 AM 34.5 °F 26.7 °F 16.9 °F 49% 30.08 in 10.0 mi SSE 10.4 mph - N/A   Overcast
11:55 AM 34.9 °F 27.7 °F 16.7 °F 48% 30.08 in 10.0 mi SSE 9.2 mph - N/A   Overcast
12:15 PM 35.4 °F 29.0 °F 17.1 °F 47% 30.06 in 10.0 mi SSE 8.1 mph - N/A   Overcast
12:35 PM 36.7 °F 28.9 °F 17.4 °F 46% 30.05 in 10.0 mi SE 11.5 mph - N/A   Overcast
12:55 PM 37.0 °F 31.0 °F 16.5 °F 43% 30.04 in 10.0 mi SE 8.1 mph - N/A   Overcast
1:15 PM 39.0 °F 32.3 °F 17.2 °F 41% 30.02 in 10.0 mi ESE 10.4 mph - N/A   Overcast
1:55 PM 39.0 °F 34.0 °F 18.3 °F 43% 30.00 in 10.0 mi ESE 6.9 mph - N/A   Overcast
2:15 PM 39.2 °F 33.6 °F 18.7 °F 44% 30.00 in 10.0 mi ESE 8.1 mph - N/A   Overcast
2:35 PM 38.7 °F 31.8 °F 19.6 °F 46% 29.99 in 10.0 mi East 10.4 mph - N/A   Overcast
2:55 PM 38.8 °F 32.6 °F 18.7 °F 44% 29.98 in 10.0 mi ESE 9.2 mph - N/A   Overcast
3:35 PM 39.2 °F 33.0 °F 18.5 °F 43% 29.96 in 10.0 mi ESE 9.2 mph - N/A   Overcast
3:55 PM 39.2 °F 32.0 °F 18.9 °F 44% 29.95 in 10.0 mi East 11.5 mph - N/A   Overcast
4:15 PM 38.8 °F 31.6 °F 20.1 °F 47% 29.94 in 10.0 mi East 11.5 mph 16.1 mph N/A   Scattered Clouds
4:35 PM 38.5 °F 31.1 °F 20.1 °F 48% 29.94 in 10.0 mi East 11.5 mph - N/A   Scattered Clouds
4:55 PM 38.1 °F 31.7 °F 19.6 °F 47% 29.95 in 10.0 mi ESE 9.2 mph - N/A   Scattered Clouds
5:15 PM 37.9 °F 30.5 °F 19.2 °F 47% 29.95 in 10.0 mi ESE 11.5 mph 16.1 mph N/A   Scattered Clouds
5:55 PM 37.4 °F 30.3 °F 19.6 °F 49% 29.95 in 10.0 mi East 10.4 mph 18.4 mph N/A   Overcast
6:15 PM 37.0 °F 30.4 °F 21.0 °F 52% 29.96 in 10.0 mi East 9.2 mph - N/A   Overcast
6:35 PM 36.7 °F 29.4 °F 21.0 °F 53% 29.95 in 10.0 mi ESE 10.4 mph - N/A   Overcast
6:55 PM 36.7 °F 28.9 °F 20.8 °F 53% 29.94 in 10.0 mi ESE 11.5 mph 17.3 mph N/A   Overcast
7:15 PM 36.5 °F 28.2 °F 20.7 °F 53% 29.93 in 10.0 mi ESE 12.7 mph 17.3 mph N/A   Scattered Clouds
7:35 PM 36.3 °F 28.0 °F 20.7 °F 53% 29.93 in 10.0 mi East 12.7 mph - N/A   Clear
7:55 PM 36.3 °F 27.5 °F 20.5 °F 53% 29.93 in 10.0 mi ESE 13.8 mph - N/A   Clear
8:15 PM 36.3 °F 28.9 °F 20.8 °F 53% 29.93 in 10.0 mi ESE 10.4 mph 16.1 mph N/A   Mostly Cloudy
8:35 PM 36.1 °F 27.7 °F 21.0 °F 54% 29.92 in 10.0 mi ESE 12.7 mph - N/A   Mostly Cloudy
8:55 PM 36.1 °F 28.2 °F 21.4 °F 55% 29.91 in 10.0 mi ESE 11.5 mph - N/A   Scattered Clouds
9:15 PM 36.1 °F 28.2 °F 21.4 °F 55% 29.92 in 10.0 mi ESE 11.5 mph - N/A   Scattered Clouds
9:35 PM 36.1 °F 29.3 °F 21.6 °F 56% 29.91 in 10.0 mi ESE 9.2 mph - N/A   Mostly Cloudy
9:55 PM 36.3 °F 29.5 °F 21.9 °F 56% 29.92 in 10.0 mi ESE 9.2 mph - N/A   Scattered Clouds
10:15 PM 36.5 °F 29.7 °F 22.1 °F 56% 29.92 in 10.0 mi ESE 9.2 mph - N/A   Scattered Clouds
10:35 PM 36.7 °F 29.9 °F 22.1 °F 56% 29.92 in 10.0 mi ESE 9.2 mph - N/A   Scattered Clouds
10:55 PM 36.7 °F 29.4 °F 22.5 °F 56% 29.91 in 10.0 mi ESE 10.4 mph - N/A   Mostly Cloudy
11:15 PM 36.9 °F 29.6 °F 22.5 °F 56% 29.90 in 10.0 mi ESE 10.4 mph - N/A   Mostly Cloudy
11:35 PM 36.9 °F 29.6 °F 22.5 °F 56% 29.90 in 10.0 mi ESE 10.4 mph - N/A   Scattered Clouds
11:55 PM 36.9 °F 29.1 °F 22.6 °F 56% 29.89 in 10.0 mi ESE 11.5 mph - N/A   Scattered Clouds